Location: Czu?�w
(50.1404°N, 18.9919°E)
Time: 12:07:43
(UTC+00:00)

Cosmos 1703 - Pass Details

Date: 27 October 2020
Orbit: 525 x 538 km, 82.5° (Epoch: 24 November)

Event Time Altitude Azimuth Distance (km) Brightness Sun altitude
Rises 16:05:42 0° 346° (NNW) 2,693 6.9 -6.5°
Reaches altitude 10° 16:07:53 10° 341° (NNW) 1,800 6.0 -6.9°
Maximum altitude 16:11:44 54° 265° (W) 661 4.2 -7.5°
Drops below altitude 10° 16:15:35 10° 188° (S) 1,791 6.2 -8.1°
Sets 16:17:45 0° 183° (S) 2,679 7.0 -8.4°
